User: anonymous
Location: Oshawa
(43.9000°N, 78.8670°W)
Time: 23:38:04
(UTC-04:00)
Language:

Iridium 98 - Orbit

View from above orbital plane
View from above orbital plane
View from above satellite
View from above satellite

Ground track
Ground track

The orbit data is extracted from the following two-line orbital elements,

1 27451U 02031B   14205.45636811  .00000262  00000-0  72406-4 0  4102
2 27451 086.4454 104.8363 0002850 088.5508 034.9511 14.42946001639536
Epoch (UTC): 24 July 2014 10:57:10
Eccentricity: 0.0002850
inclination: 86.4454°
perigee height: 747 km
apogee height: 751 km
right ascension of ascending node: 104.8363°
argument of perigee: 88.5508°
revolutions per day: 14.42946001
mean anomaly at epoch: 34.9511°
orbit number at epoch: 63953

The dashed part of the orbit path shows where the satellite is in the earth's shadow,  

DLR